DO9LL-1 Weather Reports


time (UTC)temp
F
wind
direction
speed
knots
gust
knots
rain 1hr
in
rain 24hr
in
rain mn
in
humidity
%
barometer
mb
20260831020717 62 176 0.0 0.9 0.00 0.00 0.00 84 1008.2
20260831015735 62 187 0.0 0.9 0.00 0.00 0.00 84 1008.1
20260831014732 62 188 0.0 1.7 0.00 0.00 0.00 83 1008.2
20260831013729 63 148 0.0 0.9 0.00 0.00 0.00 83 1008.4
20260831012726 63 152 0.9 2.6 0.00 0.00 0.00 82 1008.5
20260831011723 63 148 0.9 2.6 0.00 0.00 0.00 82 1008.5
20260831010720 63 186 0.9 1.7 0.00 0.00 0.00 83 1008.8
20260831005717 63 131 0.0 1.7 0.00 0.00 0.00 83 1008.8
20260831004734 63 155 0.9 1.7 0.00 0.00 0.00 83 1008.9
20260831003732 63 161 0.0 0.9 0.00 0.00 0.00 83 1009.0
20260831002728 63 170 0.9 1.7 0.00 0.00 0.00 83 1009.2
20260831001725 63 162 0.9 1.7 0.00 0.00 0.00 82 1009.2
20260831000722 63 149 0.9 1.7 0.00 0.00 0.00 82 1009.2
20260830235720 63 148 0.0 0.9 0.00 0.00 0.00 81 1009.0
20260830234717 63 160 0.0 0.9 0.00 0.00 0.00 81 1009.1
20260830233734 63 157 0.9 1.7 0.00 0.00 0.00 81 1009.2
20260830232736 63 140 0.0 0.9 0.00 0.00 0.00 81 1009.2
20260830231728 63 165 0.9 1.7 0.00 0.00 0.00 81 1009.3
20260830230725 63 152 0.9 1.7 0.00 0.00 0.00 81 1009.4
20260830225722 63 0.0 0.0 0.00 0.00 0.00 81 1009.4
20260830224719 63 161 0.0 0.9 0.00 0.00 0.00 81 1009.6
20260830223716 63 172 0.9 3.5 0.00 0.00 0.00 82 1009.6
20260830222738 62 170 0.9 1.7 0.00 0.00 0.00 83 1009.8
20260830221731 62 126 0.0 1.7 0.00 0.00 0.00 83 1009.9
20260830220728 62 0.0 0.0 0.00 0.00 0.00 83 1010.0
20260830215725 62 0.0 0.0 0.00 0.00 0.00 84 1010.1
20260830214722 62 0.0 0.0 0.00 0.00 0.00 84 1010.1
20260830213719 62 0.0 0.0 0.00 0.00 0.00 84 1010.0
20260830212716 63 0.0 0.0 0.00 0.00 0.00 83 1010.1
20260830211733 63 101 0.0 0.9 0.00 0.00 0.00 83 1010.2
20260830210731 63 0.0 0.0 0.00 0.00 0.00 84 1010.2
20260830205727 63 190 0.0 0.9 0.00 0.00 0.00 84 1010.3
20260830204725 63 0.0 0.0 0.00 0.00 0.00 85 1010.4
20260830203722 63 115 0.0 0.9 0.00 0.00 0.00 86 1010.4
20260830202719 63 134 0.0 0.9 0.00 0.00 0.00 86 1010.4
20260830201716 63 0.0 0.0 0.00 0.00 0.00 86 1010.5
20260830200733 63 0.0 0.0 0.00 0.00 0.00 86 1010.7
20260830195730 63 0.0 0.0 0.00 0.00 0.00 86 1010.5
20260830194729 63 0.0 0.0 0.00 0.00 0.00 85 1010.5
20260830193724 64 0.0 0.0 0.00 0.00 0.00 85 1010.7
20260830192721 64 0.0 0.0 0.00 0.01 0.00 85 1010.7
20260830191718 64 0.0 0.0 0.00 0.05 0.00 84 1010.8
20260830190716 64 0.0 0.0 0.00 0.07 0.00 83 1010.7
20260830185733 65 131 0.0 0.9 0.00 0.09 0.00 82 1010.7
20260830184730 65 0.0 0.0 0.00 0.10 0.00 81 1010.6
20260830183727 66 0.0 0.0 0.00 0.10 0.00 80 1010.7
20260830182724 66 119 0.0 0.9 0.00 0.11 0.00 80 1010.8
20260830181721 67 0.0 0.0 0.00 0.11 0.00 79 1010.7
20260830180718 67 167 0.0 1.7 0.00 0.11 0.00 78 1010.7
20260830175715 68 144 0.0 0.9 0.00 0.11 0.00 77 1010.8
20260830174732 68 213 0.0 0.9 0.00 0.11 0.00 77 1010.9
20260830173730 68 267 0.9 2.6 0.00 0.11 0.00 76 1010.9
20260830172726 69 273 0.9 2.6 0.00 0.11 0.00 75 1010.8
20260830171724 69 259 1.7 3.5 0.00 0.11 0.00 75 1010.8
20260830170721 69 255 1.7 2.6 0.00 0.11 0.00 74 1010.9
20260830165717 69 266 1.7 3.5 0.00 0.11 0.00 73 1010.8
20260830164735 69 257 1.7 3.5 0.00 0.11 0.00 73 1010.9
20260830163732 70 264 2.6 6.1 0.00 0.11 0.00 72 1010.8
20260830162729 70 244 1.7 5.2 0.00 0.11 0.00 71 1010.8
20260830161726 70 258 1.7 5.2 0.00 0.11 0.00 71 1010.9
20260830160723 70 239 2.6 8.7 0.00 0.12 0.00 71 1010.9
20260830155719 70 248 2.6 5.2 0.00 0.12 0.00 71 1010.8
20260830154716 71 250 3.5 7.8 0.00 0.13 0.00 71 1010.7
20260830153733 71 258 2.6 7.0 0.00 0.16 0.00 70 1010.7
20260830152730 71 250 2.6 7.0 0.00 0.16 0.00 70 1010.7
20260830151727 71 266 3.5 7.8 0.00 0.16 0.00 70 1010.8
20260830150724 71 264 3.5 7.8 0.00 0.16 0.00 71 1010.7
20260830145721 70 253 2.6 6.1 0.00 0.16 0.00 73 1010.8
20260830144718 71 266 3.5 7.8 0.00 0.16 0.00 70 1010.7
20260830143735 72 254 3.5 6.1 0.00 0.16 0.00 69 1010.7
20260830142737 70 254 2.6 5.2 0.00 0.16 0.00 73 1010.7
20260830141729 69 191 0.9 2.6 0.00 0.16 0.00 76 1010.7
20260830140726 69 207 0.9 3.5 0.00 0.16 0.00 76 1010.6
20260830135723 69 268 0.9 6.1 0.00 0.16 0.00 76 1010.7
20260830134720 68 244 1.7 3.5 0.00 0.16 0.00 76 1010.7
20260830133717 68 263 2.6 6.1 0.00 0.16 0.00 77 1010.7
20260830132739 68 260 3.5 6.1 0.00 0.16 0.00 78 1010.7
20260830131731 67 261 3.5 7.0 0.00 0.16 0.00 82 1010.8
20260830130728 66 251 2.6 5.2 0.00 0.16 0.00 85 1010.8
20260830125725 67 243 4.3 9.6 0.00 0.16 0.00 81 1010.7
20260830124722 68 237 1.7 3.5 0.00 0.16 0.00 81 1010.5
20260830123719 68 209 0.9 3.5 0.00 0.16 0.00 82 1010.5
20260830122716 67 251 1.7 5.2 0.00 0.16 0.00 84 1010.5
20260830121733 66 252 1.7 3.5 0.00 0.16 0.00 85 1010.3
20260830120730 66 251 2.6 6.1 0.00 0.16 0.00 86 1010.4
20260830115727 65 271 1.7 3.5 0.00 0.16 0.00 90 1010.4
20260830114724 64 276 2.6 7.0 0.00 0.16 0.00 90 1010.5
20260830113721 65 230 3.5 8.7 0.00 0.16 0.00 87 1010.5
20260830112718 66 246 2.6 6.1 0.00 0.16 0.00 86 1010.2
20260830111715 66 253 2.6 7.0 0.00 0.16 0.00 87 1010.1
20260830110732 65 241 1.7 5.2 0.00 0.16 0.00 90 1010.0
20260830105730 64 250 2.6 5.2 0.00 0.16 0.00 89 1010.1
20260830104727 65 268 2.6 7.0 0.00 0.16 0.00 86 1010.0
20260830103724 66 262 3.5 7.8 0.00 0.16 0.00 85 1009.9
20260830102721 64 255 2.6 6.1 0.00 0.16 0.00 87 1009.9
20260830101718 64 193 1.7 6.1 0.00 0.16 0.00 89 1009.8
20260830100736 63 257 2.6 7.0 0.00 0.16 0.00 89 1009.8
20260830095732 64 210 2.6 6.1 0.00 0.16 0.00 88 1009.7
20260830094729 64 269 2.6 7.8 0.00 0.16 0.00 87 1009.8
20260830093727 64 265 2.6 7.0 0.00 0.16 0.00 86 1009.7
20260830092723 64 285 3.5 7.8 0.00 0.16 0.00 85 1009.6
20260830091720 64 263 3.5 7.8 0.00 0.16 0.00 84 1009.5
20260830090718 64 260 6.1 11.3 0.00 0.16 0.00 84 1009.3
20260830085735 65 297 3.5 7.8 0.00 0.16 0.00 84 1009.2
20260830084732 64 235 3.5 9.6 0.00 0.16 0.00 84 1009.0
20260830083729 64 253 3.5 7.0 0.00 0.16 0.00 84 1009.0
20260830082726 64 245 3.5 8.7 0.00 0.16 0.00 85 1008.7
20260830081724 64 253 3.5 7.8 0.00 0.16 0.00 85 1008.7
20260830080720 64 265 3.5 8.7 0.00 0.16 0.00 85 1008.7
20260830075717 64 254 3.5 7.8 0.00 0.16 0.00 85 1008.5
20260830074735 63 250 2.6 8.7 0.00 0.16 0.00 86 1008.4
20260830073732 63 260 3.5 7.0 0.00 0.16 0.00 87 1008.4
20260830072729 63 263 3.5 7.8 0.00 0.16 0.00 88 1008.2
20260830071726 63 238 3.5 7.8 0.00 0.16 0.00 87 1008.1
20260830070723 63 274 3.5 7.0 0.00 0.16 0.00 86 1008.0
20260830065720 63 270 3.5 7.8 0.00 0.16 0.00 85 1007.8
20260830064717 63 244 3.5 8.7 0.00 0.16 0.00 85 1007.7
20260830063734 63 231 3.5 7.8 0.00 0.16 0.00 85 1007.6
20260830062736 63 260 3.5 7.8 0.00 0.16 0.00 84 1007.5
20260830061728 63 260 3.5 7.8 0.00 0.16 0.00 85 1007.2
20260830060725 63 262 2.6 6.1 0.00 0.16 0.00 85 1007.1
20260830055722 63 203 2.6 6.1 0.00 0.16 0.00 87 1007.2
20260830054719 62 242 2.6 7.0 0.00 0.16 0.00 89 1007.0
20260830053716 62 255 2.6 6.1 0.00 0.16 0.00 88 1007.0
20260830052739 63 261 2.6 6.1 0.00 0.16 0.00 85 1007.0
20260830051731 64 227 2.6 7.0 0.00 0.16 0.00 83 1006.8
20260830050728 64 261 3.5 8.7 0.00 0.16 0.00 83 1006.8
20260830045725 64 263 2.6 6.1 0.00 0.16 0.00 83 1006.7
20260830044723 64 240 3.5 7.8 0.00 0.16 0.00 83 1006.6
20260830043719 64 258 4.3 8.7 0.00 0.16 0.00 83 1006.5
20260830042722 64 257 4.3 12.2 0.00 0.16 0.00 83 1006.3
20260830041734 64 259 3.5 7.8 0.00 0.16 0.00 83 1006.4
20260830040731 64 254 4.3 9.6 0.00 0.16 0.00 82 1006.3
20260830035730 64 272 3.5 7.0 0.00 0.16 0.00 82 1006.2
20260830034725 64 254 4.3 9.6 0.00 0.16 0.00 82 1006.2
20260830033722 64 252 4.3 9.6 0.00 0.16 0.00 82 1006.1
20260830032719 64 271 4.3 8.7 0.00 0.16 0.00 82 1006.1
20260830031716 64 257 3.5 6.1 0.00 0.16 0.00 82 1006.0
20260830030734 65 274 3.5 7.0 0.00 0.16 0.00 82 1006.0
20260830025731 65 257 3.5 11.3 0.00 0.16 0.00 82 1006.1
20260830024728 65 246 3.5 8.7 0.00 0.16 0.00 82 1006.0
20260830023725 65 255 3.5 8.7 0.00 0.16 0.00 82 1006.0
20260830022722 65 241 3.5 12.2 0.00 0.16 0.00 82 1005.9
20260830021719 65 281 4.3 8.7 0.00 0.16 0.00 83 1005.9